| time (UTC) | temp F | wind direction | speed MPH | gust MPH | rain 1hr in | rain 24hr in | rain mn in | humidity % | barometer mb |
| 20260903160019 | 59 | 252 | 11.0 | 14.0 | 0.00 | 0.00 | 0.00 | 65 | 1010.1 |
| 20260903154516 | 59 | 214 | 7.0 | 11.0 | 0.00 | 0.00 | 0.00 | 68 | 1010.3 |
| 20260903153054 | 58 | 204 | 8.0 | 11.0 | 0.00 | 0.00 | 0.00 | 69 | 1010.5 |
| 20260903151553 | 57 | 207 | 6.0 | 10.0 | 0.00 | 0.00 | 0.00 | 69 | 1010.5 |
| 20260903150035 | 58 | 225 | 5.0 | 7.0 | 0.00 | 0.00 | 0.00 | 69 | 1010.5 |
| 20260903144530 | 56 | 177 | 3.0 | 7.0 | 0.00 | 0.00 | 0.00 | 71 | 1010.4 |
| 20260903143014 | 55 | 187 | 3.0 | 5.0 | 0.00 | 0.00 | 0.00 | 73 | 1010.3 |
| 20260903141513 | 53 | 87 | 1.0 | 3.0 | 0.00 | 0.00 | 0.00 | 78 | 1010.1 |
| 20260903140015 | 52 | 103 | 4.0 | 8.0 | 0.00 | 0.00 | 0.00 | 78 | 1009.8 |
| 20260903134508 | 53 | 110 | 3.0 | 6.0 | 0.00 | 0.00 | 0.00 | 75 | 1009.7 |
| 20260903133003 | 56 | 162 | 5.0 | 10.0 | 0.00 | 0.00 | 0.00 | 66 | 1009.4 |
| 20260903131600 | 56 | 293 | 8.0 | 17.0 | 0.00 | 0.00 | 0.00 | 67 | 1009.0 |
| 20260903130107 | 54 | 276 | 12.0 | 17.0 | 0.00 | 0.00 | 0.00 | 73 | 1008.9 |
| 20260903124606 | 52 | 204 | 6.0 | 8.0 | 0.00 | 0.00 | 0.00 | 79 | 1009.1 |
| 20260903123040 | 51 | 215 | 4.0 | 7.0 | 0.00 | 0.00 | 0.00 | 81 | 1009.1 |
| 20260903121549 | 51 | 257 | 4.0 | 6.0 | 0.00 | 0.00 | 0.00 | 79 | 1009.1 |
| 20260903120022 | 51 | 194 | 1.0 | 3.0 | 0.00 | 0.00 | 0.00 | 79 | 1009.1 |
| 20260903114518 | 52 | 274 | 0.0 | 4.0 | 0.00 | 0.00 | 0.00 | 77 | 1009.0 |
| 20260903113055 | 53 | 309 | 0.0 | 1.0 | 0.00 | 0.00 | 0.00 | 76 | 1009.0 |
| 20260903111551 | 54 | 308 | 0.0 | 1.0 | 0.00 | 0.00 | 0.00 | 74 | 1008.9 |
| 20260903110033 | 54 | 208 | 2.0 | 5.0 | 0.00 | 0.00 | 0.00 | 75 | 1008.8 |
| 20260903104532 | 55 | 342 | 0.0 | 4.0 | 0.00 | 0.00 | 0.00 | 78 | 1008.6 |
| 20260903103020 | 55 | 6 | 0.0 | 3.0 | 0.00 | 0.00 | 0.00 | 83 | 1008.3 |
| 20260903101517 | 55 | 308 | 1.0 | 4.0 | 0.00 | 0.00 | 0.00 | 83 | 1008.4 |
| 20260903100013 | 56 | 281 | 4.0 | 5.0 | 0.00 | 0.00 | 0.00 | 84 | 1008.1 |
| 20260903094512 | 56 | 262 | 3.0 | 6.0 | 0.00 | 0.00 | 0.00 | 84 | 1007.9 |
| 20260903093011 | 57 | 269 | 4.0 | 7.0 | 0.00 | 0.00 | 0.00 | 85 | 1007.9 |
| 20260903091508 | 57 | 246 | 2.0 | 6.0 | 0.00 | 0.00 | 0.00 | 84 | 1007.9 |
| 20260903090006 | 58 | 203 | 3.0 | 6.0 | 0.00 | 0.00 | 0.00 | 84 | 1007.9 |
| 20260903084506 | 58 | 208 | 4.0 | 6.0 | 0.00 | 0.00 | 0.00 | 85 | 1007.9 |
| 20260903083048 | 58 | 204 | 4.0 | 6.0 | 0.00 | 0.00 | 0.00 | 85 | 1007.8 |
| 20260903081547 | 58 | 228 | 2.0 | 4.0 | 0.00 | 0.00 | 0.00 | 84 | 1007.7 |
| 20260903080028 | 58 | 195 | 2.0 | 5.0 | 0.00 | 0.00 | 0.00 | 84 | 1007.6 |
| 20260903074528 | 58 | 173 | 2.0 | 6.0 | 0.00 | 0.00 | 0.00 | 85 | 1007.5 |
| 20260903073029 | 59 | 233 | 9.0 | 11.0 | 0.00 | 0.00 | 0.00 | 85 | 1007.2 |
| 20260903071508 | 59 | 232 | 11.0 | 15.0 | 0.00 | 0.00 | 0.00 | 85 | 1006.9 |
| 20260903070054 | 59 | 257 | 9.0 | 14.0 | 0.00 | 0.00 | 0.00 | 83 | 1006.8 |
| 20260903064550 | 60 | 231 | 10.0 | 15.0 | 0.00 | 0.00 | 0.00 | 81 | 1006.8 |
| 20260903063032 | 60 | 271 | 4.0 | 13.0 | 0.00 | 0.00 | 0.00 | 79 | 1007.0 |
| 20260903061549 | 61 | 258 | 8.0 | 19.0 | 0.00 | 0.00 | 0.00 | 78 | 1007.0 |
| 20260903060013 | 61 | 242 | 13.0 | 22.0 | 0.00 | 0.00 | 0.00 | 78 | 1006.5 |
| 20260903054517 | 60 | 239 | 11.0 | 18.0 | 0.00 | 0.00 | 0.00 | 81 | 1006.4 |
| 20260903053054 | 62 | 241 | 19.0 | 29.0 | 0.00 | 0.00 | 0.00 | 77 | 1006.3 |
| 20260903051553 | 62 | 257 | 22.0 | 28.0 | 0.00 | 0.00 | 0.00 | 75 | 1006.4 |
| 20260903050039 | 63 | 269 | 16.0 | 26.0 | 0.00 | 0.00 | 0.00 | 74 | 1006.7 |
| 20260903044545 | 63 | 262 | 18.0 | 25.0 | 0.00 | 0.00 | 0.00 | 74 | 1006.5 |
| 20260903043040 | 62 | 215 | 15.0 | 19.0 | 0.00 | 0.00 | 0.00 | 76 | 1006.6 |
| 20260903041546 | 62 | 211 | 16.0 | 23.0 | 0.00 | 0.00 | 0.00 | 76 | 1006.6 |
| 20260903040037 | 62 | 205 | 13.0 | 18.0 | 0.00 | 0.00 | 0.00 | 75 | 1006.8 |
| 20260903034536 | 63 | 211 | 6.0 | 10.0 | 0.00 | 0.00 | 0.00 | 74 | 1006.7 |
| 20260903033034 | 64 | 201 | 8.0 | 19.0 | 0.00 | 0.00 | 0.00 | 69 | 1006.7 |
| 20260903031534 | 64 | 191 | 8.0 | 20.0 | 0.00 | 0.00 | 0.00 | 69 | 1006.7 |
| 20260903030017 | 63 | 235 | 10.0 | 15.0 | 0.00 | 0.00 | 0.00 | 68 | 1006.5 |
| 20260903024517 | 64 | 222 | 14.0 | 25.0 | 0.00 | 0.00 | 0.00 | 66 | 1006.3 |
| 20260903023118 | 63 | 250 | 17.0 | 23.0 | 0.00 | 0.00 | 0.00 | 68 | 1006.2 |
| 20260903021559 | 62 | 256 | 12.0 | 17.0 | 0.00 | 0.00 | 0.00 | 71 | 1006.2 |
| 20260903020058 | 63 | 269 | 11.0 | 22.0 | 0.00 | 0.00 | 0.00 | 69 | 1006.3 |
| 20260903014606 | 65 | 271 | 12.0 | 20.0 | 0.00 | 0.00 | 0.00 | 62 | 1006.3 |
| 20260903013059 | 66 | 269 | 18.0 | 25.0 | 0.00 | 0.00 | 0.00 | 59 | 1006.3 |
| 20260903011611 | 66 | 264 | 19.0 | 28.0 | 0.00 | 0.00 | 0.00 | 58 | 1006.2 |
| 20260903010101 | 66 | 273 | 18.0 | 24.0 | 0.00 | 0.00 | 0.00 | 57 | 1006.0 |
| 20260903004544 | 66 | 267 | 22.0 | 36.0 | 0.00 | 0.00 | 0.00 | 55 | 1005.9 |
| 20260903003100 | 67 | 270 | 24.0 | 32.0 | 0.00 | 0.00 | 0.00 | 54 | 1005.8 |
| 20260903001553 | 66 | 263 | 22.0 | 29.0 | 0.00 | 0.00 | 0.00 | 56 | 1005.9 |
| 20260903000046 | 66 | 280 | 14.0 | 24.0 | 0.00 | 0.00 | 0.00 | 57 | 1006.1 |
| 20260902234523 | 68 | 256 | 20.0 | 28.0 | 0.00 | 0.00 | 0.00 | 49 | 1005.9 |
| 20260902233023 | 69 | 277 | 22.0 | 35.0 | 0.00 | 0.00 | 0.00 | 46 | 1005.9 |
| 20260902231504 | 70 | 268 | 22.0 | 36.0 | 0.00 | 0.00 | 0.00 | 45 | 1006.0 |
| 20260902230004 | 69 | 264 | 16.0 | 26.0 | 0.00 | 0.00 | 0.00 | 50 | 1006.1 |
| 20260902224547 | 69 | 264 | 12.0 | 23.0 | 0.00 | 0.00 | 0.00 | 51 | 1006.1 |
| 20260902223047 | 69 | 281 | 22.0 | 38.0 | 0.00 | 0.00 | 0.00 | 52 | 1005.7 |
| 20260902221532 | 74 | 253 | 35.0 | 51.0 | 0.00 | 0.00 | 0.00 | 42 | 1005.3 |
| 20260902220034 | 75 | 220 | 13.0 | 23.0 | 0.00 | 0.00 | 0.00 | 39 | 1004.7 |
| 20260902214521 | 75 | 200 | 16.0 | 26.0 | 0.00 | 0.00 | 0.00 | 38 | 1004.7 |
| 20260902213018 | 76 | 211 | 8.0 | 23.0 | 0.00 | 0.00 | 0.00 | 38 | 1004.8 |
| 20260902211515 | 77 | 180 | 10.0 | 22.0 | 0.00 | 0.00 | 0.00 | 36 | 1004.6 |
| 20260902210015 | 78 | 212 | 16.0 | 22.0 | 0.00 | 0.00 | 0.00 | 34 | 1004.6 |
| 20260902204512 | 79 | 191 | 17.0 | 26.0 | 0.00 | 0.00 | 0.00 | 34 | 1004.8 |
| 20260902203009 | 77 | 226 | 12.0 | 23.0 | 0.00 | 0.00 | 0.00 | 35 | 1004.9 |
| 20260902201506 | 76 | 216 | 13.0 | 18.0 | 0.00 | 0.00 | 0.00 | 36 | 1005.0 |
| 20260902200008 | 76 | 179 | 11.0 | 22.0 | 0.00 | 0.00 | 0.00 | 37 | 1005.4 |
| 20260902194551 | 75 | 195 | 13.0 | 20.0 | 0.00 | 0.00 | 0.00 | 39 | 1005.5 |
| 20260902193044 | 74 | 254 | 17.0 | 25.0 | 0.00 | 0.00 | 0.00 | 38 | 1005.8 |
| 20260902191521 | 74 | 225 | 13.0 | 21.0 | 0.00 | 0.00 | 0.00 | 41 | 1006.0 |
| 20260902190021 | 73 | 211 | 14.0 | 23.0 | 0.00 | 0.00 | 0.00 | 40 | 1006.2 |
| 20260902184501 | 73 | 240 | 15.0 | 23.0 | 0.00 | 0.00 | 0.00 | 42 | 1006.2 |
| 20260902183100 | 73 | 239 | 17.0 | 25.0 | 0.00 | 0.00 | 0.00 | 42 | 1006.4 |
| 20260902181541 | 72 | 208 | 16.0 | 22.0 | 0.00 | 0.00 | 0.00 | 42 | 1006.5 |
| 20260902180039 | 72 | 185 | 8.0 | 23.0 | 0.00 | 0.00 | 0.00 | 43 | 1006.6 |
| 20260902174520 | 72 | 252 | 18.0 | 23.0 | 0.00 | 0.00 | 0.00 | 44 | 1006.5 |
| 20260902173025 | 70 | 191 | 6.0 | 23.0 | 0.00 | 0.00 | 0.00 | 46 | 1006.7 |
| 20260902171600 | 69 | 193 | 12.0 | 20.0 | 0.00 | 0.00 | 0.00 | 49 | 1006.8 |
| 20260902170057 | 69 | 207 | 11.0 | 19.0 | 0.00 | 0.00 | 0.00 | 52 | 1006.9 |
| 20260902164536 | 68 | 200 | 12.0 | 17.0 | 0.00 | 0.00 | 0.00 | 52 | 1006.7 |
| 20260902163036 | 66 | 191 | 9.0 | 12.0 | 0.00 | 0.00 | 0.00 | 61 | 1007.0 |
| 20260902161512 | 62 | 207 | 2.0 | 6.0 | 0.00 | 0.00 | 0.00 | 66 | 1007.0 |